When you browse on this site, cookies collect data to enhance your experience and personalize the content and advertising you see.
Visit our Privacy Policy to learn more. By continuing to use the site, you agree to this use of cookies and data.

Tiempo cada hora Yevlakh

Hoy, 11 Julio, Sábado

Tiempo Temperatura Precipitaciones Viento Presión Humedad
00:00 +29°C° 0.1 mm 4 mps 760 mmHg 53%
01:00 +29°C° 0.2 mm 3 mps 760 mmHg 57%
02:00 +28°C° 0.2 mm 3 mps 760 mmHg 60%
03:00 +27°C° 0 mm 2 mps 760 mmHg 64%
04:00 +27°C° 0.5 mm 2 mps 760 mmHg 67%
05:00 +26°C° 0.5 mm 3 mps 760 mmHg 71%
06:00 +26°C° 0.5 mm 3 mps 760 mmHg 74%
07:00 +26°C° 0.4 mm 3 mps 760 mmHg 73%
08:00 +26°C° 0.4 mm 3 mps 760 mmHg 72%
09:00 +27°C° 0.4 mm 3 mps 760 mmHg 70%
10:00 +28°C° 0 mm 3 mps 760 mmHg 64%
11:00 +30°C° 0 mm 3 mps 760 mmHg 58%
12:00 +31°C° 0 mm 3 mps 760 mmHg 52%
13:00 +33°C° 0 mm 3 mps 759 mmHg 47%
14:00 +34°C° 0 mm 3 mps 759 mmHg 42%
15:00 +35°C° 0 mm 4 mps 758 mmHg 38%
16:00 +35°C° 0 mm 3 mps 758 mmHg 37%
17:00 +35°C° 0 mm 3 mps 758 mmHg 36%
18:00 +35°C° 0 mm 3 mps 758 mmHg 35%
19:00 +34°C° 0 mm 3 mps 758 mmHg 38%
20:00 +32°C° 0 mm 2 mps 758 mmHg 41%
21:00 +31°C° 0 mm 2 mps 758 mmHg 44%
22:00 +30°C° 0 mm 2 mps 758 mmHg 47%
23:00 +29°C° 0 mm 2 mps 758 mmHg 50%

Mañana, 12 Julio, Domingo

Tiempo Temperatura Precipitaciones Viento Presión Humedad
00:00 +28°C° 0 mm 3 mps 758 mmHg 52%
01:00 +28°C° 0 mm 3 mps 758 mmHg 54%
02:00 +27°C° 0 mm 3 mps 757 mmHg 56%
03:00 +26°C° 0 mm 2 mps 757 mmHg 58%
04:00 +27°C° 0 mm 2 mps 757 mmHg 56%
05:00 +27°C° 0 mm 2 mps 757 mmHg 55%
06:00 +27°C° 0 mm 1 mps 757 mmHg 53%
07:00 +29°C° 0 mm 1 mps 757 mmHg 48%
08:00 +31°C° 0 mm 1 mps 757 mmHg 43%
09:00 +33°C° 0 mm 1 mps 757 mmHg 37%
10:00 +35°C° 0 mm 3 mps 756 mmHg 33%
11:00 +37°C° 0 mm 4 mps 756 mmHg 30%
12:00 +39°C° 0 mm 5 mps 755 mmHg 26%
13:00 +39°C° 0 mm 6 mps 755 mmHg 26%
14:00 +39°C° 0 mm 7 mps 754 mmHg 26%
15:00 +39°C° 0 mm 7 mps 754 mmHg 25%
16:00 +38°C° 0 mm 7 mps 754 mmHg 28%
17:00 +38°C° 0 mm 7 mps 753 mmHg 30%
18:00 +36°C° 0 mm 6 mps 753 mmHg 33%
19:00 +34°C° 0 mm 5 mps 753 mmHg 36%
20:00 +33°C° 0 mm 4 mps 753 mmHg 40%
21:00 +30°C° 0 mm 4 mps 754 mmHg 44%
22:00 +29°C° 0 mm 3 mps 754 mmHg 46%
23:00 +29°C° 0 mm 3 mps 754 mmHg 48%

Pasado mañana, 13 Julio, Lunes

Tiempo Temperatura Precipitaciones Viento Presión Humedad
00:00 +28°C° 0 mm 2 mps 754 mmHg 50%
01:00 +28°C° 0 mm 2 mps 753 mmHg 52%
02:00 +27°C° 0 mm 2 mps 753 mmHg 54%
03:00 +27°C° 0 mm 1 mps 753 mmHg 56%
04:00 +27°C° 0 mm 1 mps 753 mmHg 55%
05:00 +27°C° 0 mm 1 mps 753 mmHg 54%
06:00 +28°C° 0 mm 1 mps 753 mmHg 53%
07:00 +29°C° 0 mm 1 mps 752 mmHg 49%
08:00 +31°C° 0 mm 1 mps 752 mmHg 45%
09:00 +32°C° 0 mm 2 mps 752 mmHg 41%
10:00 +35°C° 0 mm 2 mps 752 mmHg 37%
11:00 +36°C° 0 mm 2 mps 751 mmHg 34%
12:00 +37°C° 0 mm 2 mps 751 mmHg 30%
13:00 +38°C° 0 mm 2 mps 751 mmHg 29%
14:00 +38°C° 0 mm 2 mps 750 mmHg 28%
15:00 +39°C° 0 mm 2 mps 750 mmHg 27%
16:00 +38°C° 0.1 mm 3 mps 750 mmHg 29%
17:00 +37°C° 0.1 mm 3 mps 750 mmHg 32%
18:00 +36°C° 0.1 mm 3 mps 750 mmHg 34%
19:00 +34°C° 1.4 mm 3 mps 751 mmHg 43%
20:00 +31°C° 1.4 mm 3 mps 751 mmHg 52%
21:00 +29°C° 1.4 mm 3 mps 752 mmHg 61%
22:00 +29°C° 0.4 mm 2 mps 752 mmHg 65%
23:00 +29°C° 0.4 mm 1 mps 752 mmHg 69%

14 Julio, Martes

Tiempo Temperatura Precipitaciones Viento Presión Humedad
00:00 +27°C° 0.4 mm 0 mps 752 mmHg 73%
01:00 +28°C° 0.1 mm 1 mps 752 mmHg 72%
02:00 +28°C° 0.1 mm 1 mps 752 mmHg 72%
03:00 +28°C° 0.1 mm 2 mps 752 mmHg 72%
04:00 +28°C° 0.5 mm 3 mps 752 mmHg 70%
05:00 +28°C° 0.5 mm 4 mps 752 mmHg 69%
06:00 +28°C° 0.5 mm 4 mps 753 mmHg 67%
07:00 +28°C° 0.4 mm 5 mps 753 mmHg 64%
08:00 +29°C° 0.4 mm 5 mps 753 mmHg 62%
09:00 +30°C° 0.4 mm 5 mps 753 mmHg 59%
10:00 +32°C° 0 mm 4 mps 753 mmHg 54%
11:00 +33°C° 0 mm 4 mps 753 mmHg 50%
12:00 +35°C° 0 mm 4 mps 753 mmHg 45%
13:00 +36°C° 0 mm 4 mps 753 mmHg 42%
14:00 +36°C° 0 mm 4 mps 752 mmHg 39%
15:00 +37°C° 0 mm 5 mps 752 mmHg 36%
16:00 +37°C° 0 mm 5 mps 753 mmHg 37%
17:00 +36°C° 0 mm 6 mps 753 mmHg 38%
18:00 +35°C° 0 mm 7 mps 753 mmHg 39%
19:00 +34°C° 0 mm 7 mps 754 mmHg 41%
20:00 +33°C° 0 mm 7 mps 755 mmHg 43%
21:00 +32°C° 0 mm 7 mps 755 mmHg 46%
22:00 +30°C° 0.4 mm 7 mps 756 mmHg 49%
23:00 +29°C° 0.4 mm 7 mps 756 mmHg 53%

15 Julio, Miércoles

Tiempo Temperatura Precipitaciones Viento Presión Humedad
00:00 +28°C° 0.4 mm 6 mps 756 mmHg 57%
01:00 +28°C° 0.2 mm 6 mps 756 mmHg 58%
02:00 +27°C° 0.2 mm 6 mps 756 mmHg 59%
03:00 +27°C° 0.2 mm 5 mps 756 mmHg 61%
04:00 +27°C° 0 mm 5 mps 757 mmHg 60%
05:00 +27°C° 0 mm 5 mps 757 mmHg 60%
06:00 +27°C° 0 mm 5 mps 757 mmHg 60%
07:00 +29°C° 0 mm 4 mps 757 mmHg 55%
08:00 +30°C° 0 mm 4 mps 757 mmHg 50%
09:00 +32°C° 0 mm 4 mps 757 mmHg 45%
10:00 +34°C° 0 mm 3 mps 757 mmHg 41%
11:00 +35°C° 0 mm 2 mps 757 mmHg 37%
12:00 +35°C° 0 mm 1 mps 757 mmHg 34%
13:00 +37°C° 0 mm 2 mps 756 mmHg 33%
14:00 +38°C° 0 mm 3 mps 756 mmHg 32%
15:00 +38°C° 0 mm 3 mps 756 mmHg 31%
16:00 +38°C° 0 mm 4 mps 756 mmHg 33%
17:00 +38°C° 0 mm 4 mps 756 mmHg 35%
18:00 +37°C° 0 mm 5 mps 756 mmHg 37%
19:00 +35°C° 0.1 mm 5 mps 756 mmHg 43%
20:00 +34°C° 0.1 mm 6 mps 756 mmHg 49%
21:00 +32°C° 0.1 mm 6 mps 757 mmHg 56%
22:00 +30°C° 0.2 mm 5 mps 757 mmHg 58%
23:00 +29°C° 0.2 mm 5 mps 757 mmHg 61%

16 Julio, Jueves

Tiempo Temperatura Precipitaciones Viento Presión Humedad
00:00 +28°C° 0.2 mm 4 mps 757 mmHg 64%
01:00 +28°C° 0.8 mm 3 mps 757 mmHg 68%
02:00 +27°C° 0.8 mm 2 mps 757 mmHg 71%
03:00 +27°C° 0.8 mm 2 mps 757 mmHg 74%
04:00 +27°C° 0.3 mm 2 mps 757 mmHg 74%
05:00 +27°C° 0.3 mm 1 mps 757 mmHg 73%
06:00 +27°C° 0.3 mm 1 mps 757 mmHg 73%
07:00 +28°C° 0.3 mm 2 mps 756 mmHg 66%
08:00 +30°C° 0.3 mm 2 mps 756 mmHg 59%
09:00 +31°C° 0.3 mm 2 mps 756 mmHg 52%
10:00 +32°C° 0 mm 2 mps 756 mmHg 48%
11:00 +35°C° 0 mm 3 mps 755 mmHg 43%
12:00 +36°C° 0 mm 3 mps 755 mmHg 39%
13:00 +37°C° 0 mm 3 mps 754 mmHg 37%
14:00 +37°C° 0 mm 4 mps 754 mmHg 36%
15:00 +38°C° 0 mm 4 mps 754 mmHg 34%
16:00 +37°C° 0 mm 4 mps 753 mmHg 35%
17:00 +37°C° 0 mm 4 mps 753 mmHg 35%
18:00 +37°C° 0 mm 4 mps 753 mmHg 36%
19:00 +35°C° 0.2 mm 4 mps 754 mmHg 41%
20:00 +33°C° 0.2 mm 4 mps 754 mmHg 47%
21:00 +32°C° 0.2 mm 5 mps 754 mmHg 53%
22:00 +30°C° 0.6 mm 5 mps 754 mmHg 57%
23:00 +29°C° 0.6 mm 4 mps 754 mmHg 62%
Mostrar más